Lapse_Rate
6.7 7.0 7.4 7.5 7.5 7.4 7.3 7.3 7.5 7.1 7.5 6.9 7.1 7.2 7.2 7.4 7.9 7.8 7.8 8.0 7.5 7.2 7.0 7.1 6.8 6.6 6.6 6.6 6.4 6.3 6.2 5.5 5.2 5.0 5.3 6.1 6.5 6.5 6.4 6.4 5.8 5.1 4.7 4.8
6.9 7.1 7.5 7.5 7.2 7.1 7.6 7.8 7.9 8.0 7.6 7.7 8.0 7.6 7.4 7.9 7.8 7.9 7.9 7.9 7.4 7.3 7.3 7.4 7.0 6.9 6.8 6.8 6.5 6.5 6.8 6.9 6.7 6.4 6.5 6.5 6.7 6.4 6.5 6.6 5.5 5.4 5.2 5.0
6.4 6.9 7.0 6.1 6.4 7.8 7.9 7.8 7.7 7.5 7.7 7.6 7.6 7.7 8.0 8.1 8.2 8.0 7.9 7.9 8.0 7.9 7.8 7.5 7.6 7.8 7.8 7.9 8.0 7.7 7.3 7.1 7.1 6.7 6.1 6.1 6.2 6.2 5.9 5.8 5.5 5.1 4.6 4.7
6.6 7.1 5.2 6.6 7.1 7.2 7.5 7.6 7.7 7.9 7.8 7.8 7.7 7.6 7.8 7.8 7.7 7.8 7.7 7.9 7.9 8.0 8.3 8.2 8.2 8.1 8.1 8.2 8.2 8.1 7.8 7.3 7.1 6.3 5.5 5.4 5.6 5.5 5.3 5.1 4.9 4.8 4.8 4.9
7.0 7.1 7.2 6.4 6.7 7.6 8.0 7.4 7.6 7.7 7.6 7.6 7.5 7.6 7.7 8.0 7.8 7.7 7.9 8.0 8.1 8.2 8.6 8.5 8.2 8.0 8.1 8.2 8.1 8.1 8.0 7.4 6.6 6.2 5.3 5.0 5.4 5.4 5.0 4.8 4.6 4.7 5.1 4.9
6.9 6.9 6.2 6.8 7.0 7.5 7.8 7.3 7.5 7.6 7.8 7.6 7.4 7.6 7.6 7.7 7.6 7.5 7.5 7.9 7.9 8.2 8.5 8.1 8.1 7.8 7.8 8.1 8.1 8.1 8.2 7.7 7.2 6.4 5.7 4.9 4.7 4.6 4.6 4.5 4.8 4.6 4.7 4.9
7.0 7.1 6.9 6.9 6.9 7.6 7.5 7.6 7.4 7.0 7.1 7.2 7.0 7.2 7.2 7.2 7.1 7.3 7.5 7.9 8.0 8.1 8.1 8.1 8.1 8.0 7.9 8.3 8.3 8.3 8.3 8.0 7.5 7.6 6.3 5.3 5.1 4.9 4.6 4.3 4.3 4.9 5.0 5.1
7.1 7.2 6.3 6.7 7.0 7.5 7.6 7.4 7.0 6.7 7.1 7.5 7.0 6.9 6.8 6.8 7.1 7.1 7.0 7.4 8.1 8.1 8.1 8.1 8.0 7.9 7.8 8.1 8.1 8.2 8.2 8.2 7.7 7.3 6.0 5.9 5.5 5.1 5.0 4.7 4.8 5.1 5.2 5.5
8.1 7.5 7.1 7.1 7.2 7.6 7.4 7.0 6.8 7.0 6.8 7.3 7.4 7.2 7.1 7.1 7.5 7.6 7.5 7.8 7.7 8.3 8.2 8.0 8.0 8.0 7.9 7.8 7.7 7.7 7.7 8.0 8.0 7.2 6.8 5.9 5.6 5.1 4.9 5.0 5.2 5.5 5.7 5.7
8.0 7.1 7.6 7.3 7.2 7.3 8.0 7.4 6.9 7.1 7.2 7.4 7.6 7.6 7.4 7.6 7.8 7.7 7.7 7.8 7.8 8.1 8.1 8.1 8.0 7.8 7.6 7.5 7.3 7.4 7.5 7.6 7.6 7.4 6.6 6.2 5.7 5.4 5.4 5.4 5.5 5.5 5.5 6.0
7.3 7.2 7.4 7.5 7.6 7.6 7.4 7.2 7.1 7.1 7.2 7.5 7.8 8.0 7.8 7.8 7.7 7.7 7.8 7.7 7.9 8.1 8.1 8.1 7.8 7.7 7.7 7.7 7.4 7.2 7.5 7.5 7.4 7.1 6.6 6.0 5.8 5.6 5.4 5.6 5.8 5.7 5.9 5.9
7.1 7.4 7.4 6.8 7.5 7.5 7.5 7.6 7.5 7.5 7.4 7.7 7.8 8.0 7.9 7.5 7.1 7.3 7.8 7.8 8.0 8.1 8.2 8.0 7.9 7.6 7.6 7.7 7.8 7.8 7.7 7.6 7.7 6.5 6.2 6.0 6.0 6.2 6.0 5.9 6.0 6.3 6.3 6.1
6.9 7.1 7.3 7.2 7.3 7.4 7.4 7.5 7.5 7.3 7.2 7.7 7.9 7.6 7.7 7.6 6.4 7.1 7.9 8.1 8.1 7.9 7.7 7.6 7.7 7.6 7.7 7.6 7.7 7.4 7.4 8.0 7.6 6.8 6.2 6.1 6.0 6.1 6.3 6.1 6.1 6.2 6.2 6.2
6.9 6.7 6.5 6.7 7.0 7.0 7.0 7.1 7.2 7.1 7.4 7.8 7.5 7.7 7.6 7.0 7.0 7.4 7.6 7.7 7.5 7.3 7.5 7.5 7.6 7.6 7.5 7.3 7.4 7.4 7.4 7.8 7.5 7.0 6.3 6.2 6.0 6.0 6.4 6.4 6.5 6.5 6.4 6.2
7.0 7.2 6.9 6.6 6.7 6.8 6.9 6.9 7.2 7.3 7.4 7.4 7.3 7.4 6.9 6.8 7.3 7.5 7.5 7.5 7.4 7.3 7.5 7.4 7.4 7.4 7.2 7.1 7.1 6.8 7.2 7.4 7.4 7.0 6.7 6.5 6.4 6.3 6.3 6.5 6.5 6.4 6.3 6.3
7.0 6.8 6.7 6.5 6.6 6.6 7.0 7.2 7.3 7.6 7.1 7.2 7.2 6.8 6.8 7.1 7.4 7.3 7.4 7.2 7.2 7.3 7.3 7.3 7.3 7.2 7.0 7.1 7.0 7.0 7.0 7.1 7.1 7.0 6.8 6.7 6.6 6.6 6.4 6.3 6.3 6.3 6.2 6.1
6.6 6.7 6.5 6.8 6.8 7.3 7.6 7.3 7.1 6.8 6.7 7.1 7.2 6.9 7.0 7.0 6.8 6.9 7.1 7.3 7.3 7.2 7.2 7.2 7.2 7.2 7.3 7.2 6.9 6.9 6.9 6.9 6.9 6.8 6.8 6.7 6.6 6.5 6.4 6.3 6.2 6.2 6.1 6.0
7.2 7.0 6.9 6.9 6.9 7.0 6.8 6.9 7.0 6.9 7.0 6.8 6.8 7.1 7.2 7.2 7.1 7.4 7.5 7.4 7.2 7.2 7.3 7.1 7.1 7.1 7.1 6.9 6.8 6.8 6.8 6.8 6.7 6.6 6.6 6.5 6.4 6.3 6.2 6.1 6.0 5.9 5.8 5.7
7.3 7.2 7.1 6.7 6.8 7.0 7.2 7.1 6.9 6.7 6.8 7.0 7.2 7.2 7.4 7.6 7.7 7.7 7.6 7.4 7.4 7.6 7.4 7.2 7.1 7.0 6.9 6.8 6.7 6.6 6.5 6.4 6.3 6.2 6.1 6.1 6.0 5.9 5.9 5.9 5.9 5.8 5.6 5.5
7.6 7.6 7.5 7.0 7.0 7.1 6.9 6.8 6.9 7.0 7.1 7.2 7.3 7.4 7.7 7.8 7.7 7.8 7.6 7.6 7.7 7.5 7.3 7.2 7.1 7.1 6.9 6.7 6.5 6.4 6.3 6.2 6.1 6.0 6.0 5.9 5.8 5.7 5.7 5.7 5.7 5.7 5.5 5.4
7.5 7.4 7.3 7.2 7.1 6.9 7.0 7.1 7.3 7.4 7.4 7.3 7.4 7.7 7.9 7.9 7.9 7.8 7.8 7.7 7.4 7.2 7.2 7.1 7.1 7.0 6.8 6.6 6.4 6.3 6.2 6.2 6.1 6.0 5.9 5.8 5.7 5.6 5.6 5.6 5.8 5.8 5.6 5.5
7.3 7.3 7.4 7.4 7.3 7.3 7.2 7.3 7.5 7.3 7.4 7.4 7.5 7.7 7.9 8.0 7.9 7.9 7.7 7.5 7.3 7.2 7.1 7.1 7.0 6.8 6.7 6.6 6.5 6.4 6.3 6.2 6.1 6.0 5.9 5.8 5.8 5.9 5.9 5.9 5.9 5.9 5.7 5.6
7.7 7.6 7.6 7.6 7.5 7.5 7.5 7.4 7.3 7.2 7.2 7.5 7.6 7.8 8.0 8.0 7.9 7.8 7.5 7.3 7.2 7.2 7.1 7.0 6.9 6.8 6.7 6.6 6.6 6.5 6.3 6.2 6.0 5.9 5.8 5.8 5.9 6.0 6.0 6.0 6.0 6.0 5.7 5.5
8.0 8.0 8.1 8.0 7.7 7.6 7.4 7.3 7.2 7.1 7.2 7.5 7.7 7.8 7.8 7.9 7.8 7.6 7.3 7.2 7.1 7.1 7.0 7.0 7.0 6.9 6.8 6.7 6.6 6.5 6.4 6.2 5.9 5.9 6.0 6.0 6.1 6.2 6.2 6.1 6.2 6.0 5.7 5.5
7.9 7.8 7.8 7.9 7.7 7.3 7.1 7.1 7.1 7.1 7.1 7.5 7.7 7.7 7.7 7.7 7.6 7.4 7.2 7.1 7.1 7.1 7.1 7.1 7.1 7.0 6.9 6.8 6.6 6.5 6.4 6.2 6.1 6.1 6.1 6.2 6.2 6.2 6.1 6.2 6.1 5.8 5.7 5.6
7.6 7.6 7.5 7.3 7.2 6.9 6.8 7.0 7.0 7.0 7.1 7.4 7.5 7.5 7.6 7.6 7.5 7.3 7.2 7.1 7.1 7.2 7.2 7.1 7.0 6.9 6.8 6.7 6.7 6.6 6.5 6.4 6.3 6.3 6.3 6.3 6.2 6.2 6.3 6.3 6.1 5.9 5.9 5.8
7.6 7.5 7.3 7.1 6.9 6.7 6.6 6.8 6.9 7.1 7.2 7.4 7.5 7.5 7.5 7.5 7.4 7.3 7.2 7.2 7.1 7.1 7.1 7.0 6.9 6.7 6.7 6.7 6.6 6.6 6.5 6.3 6.3 6.4 6.4 6.4 6.3 6.2 6.2 6.2 6.1 6.0 5.8 5.7
Wind_Speed
3 6 6 5 10 8 7 7 5 11 8 22 13 7 7 8 7 7 8 8 8 7 6 6 6 4 4 3 6 6 6 7 9 8 10 11 11 11 11 11 9 9 8 7
4 3 3 10 16 9 11 12 14 13 18 10 13 15 15 13 10 9 2 7 8 7 7 6 5 5 3 3 6 6 6 6 7 10 11 11 10 9 11 9 10 10 10 8
2 4 3 8 11 15 13 14 11 10 14 13 12 14 13 14 13 6 10 7 7 7 6 4 0 3 1 3 4 5 4 6 9 11 11 10 11 11 11 11 10 10 8 7
2 5 1 7 6 7 11 13 13 13 9 8 6 9 8 8 8 9 7 6 5 6 5 4 3 3 1 2 3 3 5 7 8 11 12 11 10 12 12 11 12 10 10 8
4 6 6 14 8 3 2 10 8 4 7 6 9 5 7 11 11 7 6 5 4 3 6 5 6 1 4 3 4 5 5 7 7 8 10 9 10 9 8 8 8 9 8 8
2 5 8 5 4 5 4 7 4 6 5 7 6 4 2 5 6 5 3 2 4 4 7 6 5 3 2 3 4 5 7 8 8 9 10 8 7 8 6 7 9 9 9 7
9 4 6 6 3 9 4 5 7 5 5 5 2 4 3 5 5 6 9 8 4 6 3 3 4 2 2 4 3 6 8 9 9 9 10 10 10 10 9 10 11 10 9 6
2 3 10 6 7 6 5 4 3 3 6 6 6 6 6 8 3 2 9 9 3 4 4 4 2 3 2 4 5 8 9 10 9 10 8 9 12 9 10 11 10 10 9 7
7 7 7 5 7 3 7 5 2 2 6 5 3 5 8 7 6 6 8 5 4 5 6 3 1 3 4 4 8 9 9 9 9 10 9 9 11 10 8 9 8 8 7 6
4 12 4 4 5 4 3 4 2 3 2 5 3 5 7 4 6 4 4 4 2 6 6 2 1 3 4 7 7 9 10 10 8 9 8 8 6 7 6 7 7 7 7 7
7 4 3 10 5 2 4 4 3 5 4 6 2 6 6 6 5 6 7 4 4 5 4 3 2 1 4 7 9 9 8 8 8 6 8 7 6 6 7 5 6 6 6 8
9 3 5 6 6 5 7 6 5 6 4 5 4 6 5 4 4 7 4 3 6 4 5 3 2 2 4 6 8 10 8 6 7 6 6 6 7 6 4 7 13 13 16 12
16 15 14 13 11 9 12 12 10 8 2 5 7 3 3 7 3 3 5 5 5 3 4 3 3 3 5 6 8 9 7 8 6 7 6 6 6 6 6 7 7 14 18 18
13 10 11 6 6 6 8 7 5 3 4 3 7 5 7 6 5 5 6 6 6 4 2 2 4 4 6 8 8 8 8 11 6 6 6 6 6 5 4 6 6 4 10 14
16 16 15 12 10 9 7 8 10 9 2 6 2 4 7 9 8 6 7 7 5 4 4 3 3 6 6 7 9 9 9 7 7 6 5 7 7 6 5 5 6 5 4 6
16 16 6 1 5 8 9 11 9 9 10 11 9 8 11 10 9 8 6 4 4 4 4 4 3 5 7 6 9 7 7 11 9 7 7 7 6 6 5 6 6 6 4 4
5 4 3 4 11 19 13 10 13 15 6 11 10 11 11 10 8 6 4 3 5 5 4 5 4 5 5 8 7 5 5 7 9 6 7 6 7 7 6 7 7 6 6 6
10 8 6 6 15 13 11 7 5 10 11 10 9 11 10 7 7 6 5 5 5 5 5 5 4 6 6 6 8 4 5 6 6 6 6 6 6 7 6 7 7 7 7 8
11 11 8 10 18 11 6 9 8 11 9 9 11 9 8 6 6 7 6 6 5 5 3 4 6 6 5 6 6 4 5 6 6 5 5 6 4 4 4 4 4 6 7 8
11 8 8 8 8 10 12 9 11 11 8 11 11 11 9 7 6 7 6 5 3 3 5 4 5 6 6 6 6 4 5 5 5 4 4 4 4 4 4 5 5 6 6 7
8 7 8 8 7 8 10 9 11 11 9 10 9 9 8 6 5 7 7 5 3 5 6 5 6 5 4 4 5 5 5 4 5 4 4 4 5 4 4 4 4 4 4 4
6 5 5 5 7 8 8 8 10 10 8 9 8 9 8 7 6 5 4 6 4 7 4 4 4 6 5 5 3 5 5 5 4 4 5 4 4 4 4 4 4 4 4 4
4 4 4 5 6 6 8 7 7 7 9 9 10 9 7 6 5 6 6 4 4 6 4 5 7 7 7 4 3 5 5 5 4 4 4 4 4 4 3 5 4 4 5 5
4 4 4 5 7 7 8 5 6 6 6 5 5 4 7 6 5 3 5 7 7 6 4 5 6 9 6 3 4 4 4 4 4 4 4 5 3 3 4 4 4 4 4 5
3 2 2 3 5 5 7 6 5 5 4 5 4 4 5 4 4 5 5 5 7 5 3 6 7 6 3 3 3 3 3 3 3 4 3 3 3 3 4 4 3 4 4 4
4 2 2 3 5 5 5 5 4 4 5 3 2 4 4 5 5 6 5 5 3 5 3 3 3 3 3 3 4 4 4 4 5 4 4 4 4 4 4 4 4 4 4 5
2 3 3 3 3 4 4 3 5 5 4 4 4 4 5 5 5 6 6 4 4 4 3 2 2 3 4 4 4 4 4 4 5 4 4 4 4 4 4 4 5 9 11 12
Wind_Direction
63 40 9 316 284 282 281 266 222 270 255 278 297 280 294 298 292 286 280 112 126 133 146 137 122 133 140 197 210 218 195 186 182 144 140 136 140 134 127 122 118 118 111 94
11 78 306 282 275 288 268 264 272 282 279 284 299 302 293 290 282 285 345 128 96 90 102 117 163 184 174 236 236 202 190 192 144 141 141 141 136 124 114 106 103 109 108 100
255 171 241 281 246 252 273 270 260 261 264 278 271 269 278 280 268 96 105 93 83 73 59 27 212 99 33 309 282 233 185 136 142 139 138 135 131 126 131 128 121 113 105 113
168 59 288 242 285 282 267 270 272 280 288 274 346 336 330 32 70 73 68 72 82 85 58 16 26 47 55 344 263 147 127 128 136 141 141 145 141 142 140 142 147 149 130 127
149 196 288 288 277 261 300 299 305 314 13 14 4 8 38 33 50 42 45 49 54 40 71 15 359 136 102 89 101 121 132 130 140 139 133 136 128 134 139 136 119 116 118 125
130 168 211 232 224 294 346 286 19 39 355 359 12 23 285 8 11 355 16 48 44 46 52 35 18 47 123 124 140 133 136 135 131 131 127 131 127 119 116 110 111 113 109 121
222 219 261 250 314 275 186 241 0 338 326 3 280 198 156 65 15 335 325 342 84 78 68 82 45 55 132 113 124 128 128 132 133 129 133 128 119 120 117 112 118 120 124 128
178 161 257 203 248 232 212 198 158 9 339 321 318 169 163 158 154 297 303 299 113 121 62 66 110 122 137 124 132 134 137 135 133 131 131 131 130 132 127 128 125 126 128 122
189 214 218 229 232 170 179 196 171 325 280 308 159 224 199 194 175 176 243 289 212 119 98 63 193 155 164 147 146 141 133 134 137 136 136 139 136 138 134 133 134 134 136 137
230 253 264 299 321 339 270 191 213 251 304 357 253 212 255 231 184 178 238 264 193 135 99 138 176 186 153 151 155 142 139 139 142 138 135 135 134 135 138 141 141 146 149 147
267 297 298 285 269 300 334 320 349 327 313 298 232 255 235 251 220 201 200 222 111 96 111 120 89 115 149 153 145 142 140 139 134 140 137 134 132 142 141 141 155 161 158 152
257 249 244 252 285 324 318 307 307 299 324 352 343 338 217 227 219 241 162 83 84 105 110 125 122 139 135 137 145 138 137 140 136 136 138 134 130 127 143 173 188 173 159 157
263 269 262 262 261 259 267 276 265 257 48 6 313 242 155 158 195 189 118 111 105 105 107 131 136 132 130 138 137 138 141 139 134 135 143 138 125 123 124 116 130 187 164 161
278 281 286 273 267 287 293 294 294 256 128 16 342 190 186 150 175 159 126 117 113 118 137 164 155 155 146 140 134 130 131 135 137 138 145 130 128 122 115 115 106 83 141 153
250 255 258 257 262 271 277 274 267 263 50 339 63 208 166 153 126 105 96 95 102 137 176 138 140 158 146 144 141 141 142 139 141 140 132 131 133 133 126 119 117 114 99 101
243 245 224 240 285 286 285 290 308 307 280 221 199 130 105 108 98 81 74 110 165 166 139 148 139 153 145 129 128 137 142 137 144 146 144 144 142 143 142 144 139 138 136 140
246 233 262 323 279 277 272 236 255 258 184 169 141 123 111 98 101 112 110 95 98 106 131 129 126 134 129 130 134 142 147 147 147 143 149 149 150 157 164 160 156 159 158 164
248 227 191 176 272 267 261 251 211 124 126 119 109 110 111 119 138 135 128 112 98 93 87 104 113 131 127 137 145 125 125 138 139 146 148 145 153 159 164 161 163 161 158 164
233 255 254 212 251 246 171 125 110 109 109 111 104 103 120 136 137 131 131 121 116 107 101 113 125 120 113 118 109 109 115 121 124 123 128 132 125 132 132 137 142 146 155 161
47 49 62 60 59 107 106 104 112 113 110 112 117 131 132 130 126 117 103 93 115 125 127 134 117 115 111 117 106 106 111 113 120 124 119 123 127 126 125 128 128 137 152 164
46 50 66 74 76 76 95 116 119 117 120 127 126 130 136 133 129 134 116 105 107 129 132 129 120 122 115 117 113 117 115 115 115 124 126 125 126 128 133 138 140 134 145 153
53 57 68 70 92 89 87 102 110 115 125 134 124 135 131 123 110 84 111 143 137 144 141 128 127 133 137 125 121 126 129 130 127 134 135 139 145 151 154 149 151 148 160 157
60 71 76 82 92 90 89 90 97 119 132 139 146 148 142 142 140 126 133 148 136 152 137 140 150 146 138 139 133 140 137 138 142 149 145 156 164 161 156 167 169 156 154 165
87 80 92 101 103 98 95 89 103 117 123 140 156 173 140 115 72 78 115 129 131 140 139 147 153 149 143 138 138 138 143 140 152 159 153 154 166 151 144 155 156 149 151 151
73 92 123 138 114 109 115 115 108 113 120 141 102 91 102 121 122 128 116 123 121 117 112 138 146 141 128 141 132 134 142 145 150 140 142 138 138 135 146 144 144 145 141 143
192 185 171 179 140 135 141 151 149 147 137 142 88 102 92 103 114 116 114 137 122 125 121 138 136 148 145 137 142 146 143 137 140 133 130 128 124 122 125 124 124 128 130 136
186 128 122 92 97 139 155 149 147 153 156 147 130 127 126 123 127 124 133 142 136 135 133 129 137 122 118 114 107 111 110 110 116 120 120 121 117 120 126 133 135 138 140 136